TITAN 4B R/B

Last updated on Wed Oct 22 2025 00:02:14 GMT+0000 (Coordinated Universal Time)

1 26474U 00047B 25294.62727953 .00007597 00000+0 48727-3 0 9995 2 26474 67.9899 71.1481 0044277 203.7174 156.1935 15.08180639371937
UTC large
Height (km)
Speed (km/s)
/
Latitude / Longitude
Inclination (degrees)
Orbital Period (minutes)
Azimuth
Elevation
Range (km)
Doppler Factor

Next 0 passes for location: London (51.5072 / 0.1276)

Sorry there are no passes over London.